Index of /20260507/WXO-DD/model_gdps/15km/00/117
Name Last modified Size Description
Parent Directory -
20260507T00Z_MSC_GDPS_AbsoluteVorticity_IsbL-0200_LatLon0.15_PT117H.grib2 2026-05-07 04:34 1.2M
20260507T00Z_MSC_GDPS_AbsoluteVorticity_IsbL-0250_LatLon0.15_PT117H.grib2 2026-05-07 04:34 1.3M
20260507T00Z_MSC_GDPS_AbsoluteVorticity_IsbL-0500_LatLon0.15_PT117H.grib2 2026-05-07 04:34 1.2M
20260507T00Z_MSC_GDPS_AbsoluteVorticity_IsbL-0700_LatLon0.15_PT117H.grib2 2026-05-07 04:34 1.3M
20260507T00Z_MSC_GDPS_AbsoluteVorticity_IsbL-0850_LatLon0.15_PT117H.grib2 2026-05-07 04:34 1.6M
20260507T00Z_MSC_GDPS_AirTemp_AGL-120m_LatLon0.15_PT117H.grib2 2026-05-07 04:34 912K
20260507T00Z_MSC_GDPS_AirTemp_AGL-2m_LatLon0.15_PT117H.grib2 2026-05-07 04:34 1.0M
20260507T00Z_MSC_GDPS_AirTemp_AGL-40m_LatLon0.15_PT117H.grib2 2026-05-07 04:34 816K
20260507T00Z_MSC_GDPS_AirTemp_AGL-80m_LatLon0.15_PT117H.grib2 2026-05-07 04:34 804K
20260507T00Z_MSC_GDPS_AirTemp_IsbL-0001_LatLon0.15_PT117H.grib2 2026-05-07 04:34 670K
20260507T00Z_MSC_GDPS_AirTemp_IsbL-0005_LatLon0.15_PT117H.grib2 2026-05-07 04:34 694K
20260507T00Z_MSC_GDPS_AirTemp_IsbL-0010_LatLon0.15_PT117H.grib2 2026-05-07 04:34 698K
20260507T00Z_MSC_GDPS_AirTemp_IsbL-0020_LatLon0.15_PT117H.grib2 2026-05-07 04:34 784K
20260507T00Z_MSC_GDPS_AirTemp_IsbL-0030_LatLon0.15_PT117H.grib2 2026-05-07 04:34 836K
20260507T00Z_MSC_GDPS_AirTemp_IsbL-0050_LatLon0.15_PT117H.grib2 2026-05-07 04:34 878K
20260507T00Z_MSC_GDPS_AirTemp_IsbL-0100_LatLon0.15_PT117H.grib2 2026-05-07 04:34 961K
20260507T00Z_MSC_GDPS_AirTemp_IsbL-0150_LatLon0.15_PT117H.grib2 2026-05-07 04:34 954K
20260507T00Z_MSC_GDPS_AirTemp_IsbL-0175_LatLon0.15_PT117H.grib2 2026-05-07 04:34 1.0M
20260507T00Z_MSC_GDPS_AirTemp_IsbL-0200_LatLon0.15_PT117H.grib2 2026-05-07 04:34 1.0M
20260507T00Z_MSC_GDPS_AirTemp_IsbL-0225_LatLon0.15_PT117H.grib2 2026-05-07 04:34 966K
20260507T00Z_MSC_GDPS_AirTemp_IsbL-0250_LatLon0.15_PT117H.grib2 2026-05-07 04:34 1.0M
20260507T00Z_MSC_GDPS_AirTemp_IsbL-0275_LatLon0.15_PT117H.grib2 2026-05-07 04:34 1.0M
20260507T00Z_MSC_GDPS_AirTemp_IsbL-0300_LatLon0.15_PT117H.grib2 2026-05-07 04:34 1.0M
20260507T00Z_MSC_GDPS_AirTemp_IsbL-0350_LatLon0.15_PT117H.grib2 2026-05-07 04:34 932K
20260507T00Z_MSC_GDPS_AirTemp_IsbL-0400_LatLon0.15_PT117H.grib2 2026-05-07 04:34 946K
20260507T00Z_MSC_GDPS_AirTemp_IsbL-0450_LatLon0.15_PT117H.grib2 2026-05-07 04:34 973K
20260507T00Z_MSC_GDPS_AirTemp_IsbL-0500_LatLon0.15_PT117H.grib2 2026-05-07 04:34 1.0M
20260507T00Z_MSC_GDPS_AirTemp_IsbL-0550_LatLon0.15_PT117H.grib2 2026-05-07 04:34 1.0M
20260507T00Z_MSC_GDPS_AirTemp_IsbL-0600_LatLon0.15_PT117H.grib2 2026-05-07 04:34 902K
20260507T00Z_MSC_GDPS_AirTemp_IsbL-0650_LatLon0.15_PT117H.grib2 2026-05-07 04:34 933K
20260507T00Z_MSC_GDPS_AirTemp_IsbL-0700_LatLon0.15_PT117H.grib2 2026-05-07 04:34 965K
20260507T00Z_MSC_GDPS_AirTemp_IsbL-0750_LatLon0.15_PT117H.grib2 2026-05-07 04:34 1.0M
20260507T00Z_MSC_GDPS_AirTemp_IsbL-0800_LatLon0.15_PT117H.grib2 2026-05-07 04:34 1.1M
20260507T00Z_MSC_GDPS_AirTemp_IsbL-0850_LatLon0.15_PT117H.grib2 2026-05-07 04:34 1.1M
20260507T00Z_MSC_GDPS_AirTemp_IsbL-0875_LatLon0.15_PT117H.grib2 2026-05-07 04:34 1.1M
20260507T00Z_MSC_GDPS_AirTemp_IsbL-0900_LatLon0.15_PT117H.grib2 2026-05-07 04:34 1.1M
20260507T00Z_MSC_GDPS_AirTemp_IsbL-0925_LatLon0.15_PT117H.grib2 2026-05-07 04:34 1.1M
20260507T00Z_MSC_GDPS_AirTemp_IsbL-0950_LatLon0.15_PT117H.grib2 2026-05-07 04:34 1.1M
20260507T00Z_MSC_GDPS_AirTemp_IsbL-0970_LatLon0.15_PT117H.grib2 2026-05-07 04:34 1.2M
20260507T00Z_MSC_GDPS_AirTemp_IsbL-0985_LatLon0.15_PT117H.grib2 2026-05-07 04:34 1.1M
20260507T00Z_MSC_GDPS_AirTemp_IsbL-1000_LatLon0.15_PT117H.grib2 2026-05-07 04:34 1.1M
20260507T00Z_MSC_GDPS_AirTemp_IsbL-1015_LatLon0.15_PT117H.grib2 2026-05-07 04:34 1.1M
20260507T00Z_MSC_GDPS_Albedo_Sfc_LatLon0.15_PT117H.grib2 2026-05-07 04:34 245K
20260507T00Z_MSC_GDPS_CAPE_Sfc_LatLon0.15_PT117H.grib2 2026-05-07 04:34 3.9M
20260507T00Z_MSC_GDPS_CIN_Sfc_LatLon0.15_PT117H.grib2 2026-05-07 04:34 2.8M
20260507T00Z_MSC_GDPS_CloudWater_EAtm_LatLon0.15_PT117H.grib2 2026-05-07 04:34 546K
20260507T00Z_MSC_GDPS_ConvectivePrecip-Accum_Sfc_LatLon0.15_PT117H.grib2 2026-05-07 04:34 3.5M
20260507T00Z_MSC_GDPS_DewPointDepression_AGL-2m_LatLon0.15_PT117H.grib2 2026-05-07 04:34 764K
20260507T00Z_MSC_GDPS_DewPointDepression_IsbL-0010_LatLon0.15_PT117H.grib2 2026-05-07 04:34 90K
20260507T00Z_MSC_GDPS_DewPointDepression_IsbL-0020_LatLon0.15_PT117H.grib2 2026-05-07 04:34 87K
20260507T00Z_MSC_GDPS_DewPointDepression_IsbL-0030_LatLon0.15_PT117H.grib2 2026-05-07 04:34 102K
20260507T00Z_MSC_GDPS_DewPointDepression_IsbL-0050_LatLon0.15_PT117H.grib2 2026-05-07 04:34 371K
20260507T00Z_MSC_GDPS_DewPointDepression_IsbL-0100_LatLon0.15_PT117H.grib2 2026-05-07 04:34 387K
20260507T00Z_MSC_GDPS_DewPointDepression_IsbL-0150_LatLon0.15_PT117H.grib2 2026-05-07 04:34 496K
20260507T00Z_MSC_GDPS_DewPointDepression_IsbL-0175_LatLon0.15_PT117H.grib2 2026-05-07 04:34 589K
20260507T00Z_MSC_GDPS_DewPointDepression_IsbL-0200_LatLon0.15_PT117H.grib2 2026-05-07 04:34 688K
20260507T00Z_MSC_GDPS_DewPointDepression_IsbL-0225_LatLon0.15_PT117H.grib2 2026-05-07 04:34 783K
20260507T00Z_MSC_GDPS_DewPointDepression_IsbL-0250_LatLon0.15_PT117H.grib2 2026-05-07 04:34 881K
20260507T00Z_MSC_GDPS_DewPointDepression_IsbL-0275_LatLon0.15_PT117H.grib2 2026-05-07 04:34 903K
20260507T00Z_MSC_GDPS_DewPointDepression_IsbL-0300_LatLon0.15_PT117H.grib2 2026-05-07 04:34 941K
20260507T00Z_MSC_GDPS_DewPointDepression_IsbL-0350_LatLon0.15_PT117H.grib2 2026-05-07 04:34 967K
20260507T00Z_MSC_GDPS_DewPointDepression_IsbL-0400_LatLon0.15_PT117H.grib2 2026-05-07 04:34 1.0M
20260507T00Z_MSC_GDPS_DewPointDepression_IsbL-0450_LatLon0.15_PT117H.grib2 2026-05-07 04:34 1.0M
20260507T00Z_MSC_GDPS_DewPointDepression_IsbL-0500_LatLon0.15_PT117H.grib2 2026-05-07 04:34 1.0M
20260507T00Z_MSC_GDPS_DewPointDepression_IsbL-0550_LatLon0.15_PT117H.grib2 2026-05-07 04:34 1.0M
20260507T00Z_MSC_GDPS_DewPointDepression_IsbL-0600_LatLon0.15_PT117H.grib2 2026-05-07 04:34 1.1M
20260507T00Z_MSC_GDPS_DewPointDepression_IsbL-0650_LatLon0.15_PT117H.grib2 2026-05-07 04:34 1.1M
20260507T00Z_MSC_GDPS_DewPointDepression_IsbL-0700_LatLon0.15_PT117H.grib2 2026-05-07 04:34 1.1M
20260507T00Z_MSC_GDPS_DewPointDepression_IsbL-0750_LatLon0.15_PT117H.grib2 2026-05-07 04:34 1.1M
20260507T00Z_MSC_GDPS_DewPointDepression_IsbL-0800_LatLon0.15_PT117H.grib2 2026-05-07 04:34 1.2M
20260507T00Z_MSC_GDPS_DewPointDepression_IsbL-0850_LatLon0.15_PT117H.grib2 2026-05-07 04:34 1.1M
20260507T00Z_MSC_GDPS_DewPointDepression_IsbL-0875_LatLon0.15_PT117H.grib2 2026-05-07 04:34 1.1M
20260507T00Z_MSC_GDPS_DewPointDepression_IsbL-0900_LatLon0.15_PT117H.grib2 2026-05-07 04:34 1.1M
20260507T00Z_MSC_GDPS_DewPointDepression_IsbL-0925_LatLon0.15_PT117H.grib2 2026-05-07 04:34 1.0M
20260507T00Z_MSC_GDPS_DewPointDepression_IsbL-0950_LatLon0.15_PT117H.grib2 2026-05-07 04:34 1.0M
20260507T00Z_MSC_GDPS_DewPointDepression_IsbL-0970_LatLon0.15_PT117H.grib2 2026-05-07 04:34 1.0M
20260507T00Z_MSC_GDPS_DewPointDepression_IsbL-0985_LatLon0.15_PT117H.grib2 2026-05-07 04:34 1.0M
20260507T00Z_MSC_GDPS_DewPointDepression_IsbL-1000_LatLon0.15_PT117H.grib2 2026-05-07 04:34 966K
20260507T00Z_MSC_GDPS_DewPointDepression_IsbL-1015_LatLon0.15_PT117H.grib2 2026-05-07 04:34 906K
20260507T00Z_MSC_GDPS_DewPoint_AGL-2m_LatLon0.15_PT117H.grib2 2026-05-07 04:34 606K
20260507T00Z_MSC_GDPS_DownwardLongwaveRadiationFlux-Accum_Sfc_LatLon0.15_PT117H.grib2 2026-05-07 04:34 799K
20260507T00Z_MSC_GDPS_DownwardShortwaveRadiationFlux-Accum_NTAtm_LatLon0.15_PT117H.grib2 2026-05-07 04:34 255K
20260507T00Z_MSC_GDPS_DownwardShortwaveRadiationFlux-Accum_Sfc_LatLon0.15_PT117H.grib2 2026-05-07 04:34 1.0M
20260507T00Z_MSC_GDPS_FreezingRain-Accum1h_Sfc_LatLon0.15_PT117H.grib2 2026-05-07 04:34 44K
20260507T00Z_MSC_GDPS_FreezingRain-Accum3h_Sfc_LatLon0.15_PT117H.grib2 2026-05-07 04:34 52K
20260507T00Z_MSC_GDPS_FreezingRain-Accum_Sfc_LatLon0.15_PT117H.grib2 2026-05-07 04:34 316K
20260507T00Z_MSC_GDPS_GeopotentialHeight_IsbL-0001_LatLon0.15_PT117H.grib2 2026-05-07 04:34 455K
20260507T00Z_MSC_GDPS_GeopotentialHeight_IsbL-0005_LatLon0.15_PT117H.grib2 2026-05-07 04:34 486K
20260507T00Z_MSC_GDPS_GeopotentialHeight_IsbL-0010_LatLon0.15_PT117H.grib2 2026-05-07 04:34 468K
20260507T00Z_MSC_GDPS_GeopotentialHeight_IsbL-0020_LatLon0.15_PT117H.grib2 2026-05-07 04:34 402K
20260507T00Z_MSC_GDPS_GeopotentialHeight_IsbL-0030_LatLon0.15_PT117H.grib2 2026-05-07 04:34 405K
20260507T00Z_MSC_GDPS_GeopotentialHeight_IsbL-0050_LatLon0.15_PT117H.grib2 2026-05-07 04:34 563K
20260507T00Z_MSC_GDPS_GeopotentialHeight_IsbL-0100_LatLon0.15_PT117H.grib2 2026-05-07 04:34 605K
20260507T00Z_MSC_GDPS_GeopotentialHeight_IsbL-0150_LatLon0.15_PT117H.grib2 2026-05-07 04:34 624K
20260507T00Z_MSC_GDPS_GeopotentialHeight_IsbL-0175_LatLon0.15_PT117H.grib2 2026-05-07 04:34 627K
20260507T00Z_MSC_GDPS_GeopotentialHeight_IsbL-0200_LatLon0.15_PT117H.grib2 2026-05-07 04:34 630K
20260507T00Z_MSC_GDPS_GeopotentialHeight_IsbL-0225_LatLon0.15_PT117H.grib2 2026-05-07 04:34 633K
20260507T00Z_MSC_GDPS_GeopotentialHeight_IsbL-0250_LatLon0.15_PT117H.grib2 2026-05-07 04:34 637K
20260507T00Z_MSC_GDPS_GeopotentialHeight_IsbL-0275_LatLon0.15_PT117H.grib2 2026-05-07 04:34 638K
20260507T00Z_MSC_GDPS_GeopotentialHeight_IsbL-0300_LatLon0.15_PT117H.grib2 2026-05-07 04:34 637K
20260507T00Z_MSC_GDPS_GeopotentialHeight_IsbL-0350_LatLon0.15_PT117H.grib2 2026-05-07 04:34 626K
20260507T00Z_MSC_GDPS_GeopotentialHeight_IsbL-0400_LatLon0.15_PT117H.grib2 2026-05-07 04:34 620K
20260507T00Z_MSC_GDPS_GeopotentialHeight_IsbL-0450_LatLon0.15_PT117H.grib2 2026-05-07 04:34 611K
20260507T00Z_MSC_GDPS_GeopotentialHeight_IsbL-0500_LatLon0.15_PT117H.grib2 2026-05-07 04:34 603K
20260507T00Z_MSC_GDPS_GeopotentialHeight_IsbL-0550_LatLon0.15_PT117H.grib2 2026-05-07 04:34 529K
20260507T00Z_MSC_GDPS_GeopotentialHeight_IsbL-0600_LatLon0.15_PT117H.grib2 2026-05-07 04:34 527K
20260507T00Z_MSC_GDPS_GeopotentialHeight_IsbL-0650_LatLon0.15_PT117H.grib2 2026-05-07 04:34 696K
20260507T00Z_MSC_GDPS_GeopotentialHeight_IsbL-0700_LatLon0.15_PT117H.grib2 2026-05-07 04:34 696K
20260507T00Z_MSC_GDPS_GeopotentialHeight_IsbL-0750_LatLon0.15_PT117H.grib2 2026-05-07 04:34 701K
20260507T00Z_MSC_GDPS_GeopotentialHeight_IsbL-0800_LatLon0.15_PT117H.grib2 2026-05-07 04:34 710K
20260507T00Z_MSC_GDPS_GeopotentialHeight_IsbL-0850_LatLon0.15_PT117H.grib2 2026-05-07 04:34 718K
20260507T00Z_MSC_GDPS_GeopotentialHeight_IsbL-0875_LatLon0.15_PT117H.grib2 2026-05-07 04:34 723K
20260507T00Z_MSC_GDPS_GeopotentialHeight_IsbL-0900_LatLon0.15_PT117H.grib2 2026-05-07 04:34 726K
20260507T00Z_MSC_GDPS_GeopotentialHeight_IsbL-0925_LatLon0.15_PT117H.grib2 2026-05-07 04:34 736K
20260507T00Z_MSC_GDPS_GeopotentialHeight_IsbL-0950_LatLon0.15_PT117H.grib2 2026-05-07 04:34 741K
20260507T00Z_MSC_GDPS_GeopotentialHeight_IsbL-0970_LatLon0.15_PT117H.grib2 2026-05-07 04:34 753K
20260507T00Z_MSC_GDPS_GeopotentialHeight_IsbL-0985_LatLon0.15_PT117H.grib2 2026-05-07 04:34 770K
20260507T00Z_MSC_GDPS_GeopotentialHeight_IsbL-1000_LatLon0.15_PT117H.grib2 2026-05-07 04:34 792K
20260507T00Z_MSC_GDPS_GeopotentialHeight_IsbL-1015_LatLon0.15_PT117H.grib2 2026-05-07 04:34 622K
20260507T00Z_MSC_GDPS_Humidex_Sfc_LatLon0.15_PT117H.grib2 2026-05-07 04:34 5.3M
20260507T00Z_MSC_GDPS_IcePellets-Accum1h_Sfc_LatLon0.15_PT117H.grib2 2026-05-07 04:34 34K
20260507T00Z_MSC_GDPS_IcePellets-Accum3h_Sfc_LatLon0.15_PT117H.grib2 2026-05-07 04:34 35K
20260507T00Z_MSC_GDPS_IcePellets-Accum_Sfc_LatLon0.15_PT117H.grib2 2026-05-07 04:34 186K
20260507T00Z_MSC_GDPS_KIndex_Sfc_LatLon0.15_PT117H.grib2 2026-05-07 04:34 6.5M
20260507T00Z_MSC_GDPS_LatentHeatNetFlux_Sfc_LatLon0.15_PT117H.grib2 2026-05-07 04:34 676K
20260507T00Z_MSC_GDPS_LiftedIndex-MU-VT_IsbL-0500_LatLon0.15_PT117H.grib2 2026-05-07 04:34 5.4M
20260507T00Z_MSC_GDPS_NetLongwaveRadiationFlux-Accum_Sfc_LatLon0.15_PT117H.grib2 2026-05-07 04:34 1.0M
20260507T00Z_MSC_GDPS_NetShortwaveRadiationFlux-Accum_Sfc_LatLon0.15_PT117H.grib2 2026-05-07 04:34 1.0M
20260507T00Z_MSC_GDPS_O3MixingRatio_Sfc_LatLon0.15_PT117H.grib2 2026-05-07 04:56 1.9M
20260507T00Z_MSC_GDPS_O3_EAtm_LatLon0.15_PT117H.grib2 2026-05-07 04:56 2.5M
20260507T00Z_MSC_GDPS_PlanetaryBoundaryLayerHeight_Sfc_LatLon0.15_PT117H.grib2 2026-05-07 04:34 2.4M
20260507T00Z_MSC_GDPS_Precip-Accum1h_Sfc_LatLon0.15_PT117H.grib2 2026-05-07 04:34 3.2M
20260507T00Z_MSC_GDPS_Precip-Accum3h_Sfc_LatLon0.15_PT117H.grib2 2026-05-07 04:34 3.5M
20260507T00Z_MSC_GDPS_Precip-Accum_Sfc_LatLon0.15_PT117H.grib2 2026-05-07 04:34 4.8M
20260507T00Z_MSC_GDPS_PrecipRate_Sfc_LatLon0.15_PT117H.grib2 2026-05-07 04:34 3.0M
20260507T00Z_MSC_GDPS_PrecipType-Instant_Sfc_LatLon0.15_PT117H.grib2 2026-05-07 04:34 1.6M
20260507T00Z_MSC_GDPS_Pressure_MSL_LatLon0.15_PT117H.grib2 2026-05-07 04:34 826K
20260507T00Z_MSC_GDPS_Pressure_PVU-1.5_LatLon0.15_PT117H.grib2 2026-05-07 04:34 5.8M
20260507T00Z_MSC_GDPS_Pressure_PVU-1_LatLon0.15_PT117H.grib2 2026-05-07 04:34 6.0M
20260507T00Z_MSC_GDPS_Pressure_PVU-2_LatLon0.15_PT117H.grib2 2026-05-07 04:34 5.6M
20260507T00Z_MSC_GDPS_Pressure_Sfc_LatLon0.15_PT117H.grib2 2026-05-07 04:34 1.1M
20260507T00Z_MSC_GDPS_RadiativeTemp_Sfc_LatLon0.15_PT117H.grib2 2026-05-07 04:34 655K
20260507T00Z_MSC_GDPS_Rain-Accum1h_Sfc_LatLon0.15_PT117H.grib2 2026-05-07 04:34 1.7M
20260507T00Z_MSC_GDPS_Rain-Accum3h_Sfc_LatLon0.15_PT117H.grib2 2026-05-07 04:34 1.7M
20260507T00Z_MSC_GDPS_Rain-Accum_Sfc_LatLon0.15_PT117H.grib2 2026-05-07 04:34 3.8M
20260507T00Z_MSC_GDPS_RelativeHumidity_AGL-2m_LatLon0.15_PT117H.grib2 2026-05-07 04:34 1.1M
20260507T00Z_MSC_GDPS_RelativeHumidity_IsbL-0010_LatLon0.15_PT117H.grib2 2026-05-07 04:34 142K
20260507T00Z_MSC_GDPS_RelativeHumidity_IsbL-0020_LatLon0.15_PT117H.grib2 2026-05-07 04:34 168K
20260507T00Z_MSC_GDPS_RelativeHumidity_IsbL-0030_LatLon0.15_PT117H.grib2 2026-05-07 04:34 189K
20260507T00Z_MSC_GDPS_RelativeHumidity_IsbL-0050_LatLon0.15_PT117H.grib2 2026-05-07 04:34 335K
20260507T00Z_MSC_GDPS_RelativeHumidity_IsbL-0100_LatLon0.15_PT117H.grib2 2026-05-07 04:34 494K
20260507T00Z_MSC_GDPS_RelativeHumidity_IsbL-0150_LatLon0.15_PT117H.grib2 2026-05-07 04:34 673K
20260507T00Z_MSC_GDPS_RelativeHumidity_IsbL-0175_LatLon0.15_PT117H.grib2 2026-05-07 04:34 795K
20260507T00Z_MSC_GDPS_RelativeHumidity_IsbL-0200_LatLon0.15_PT117H.grib2 2026-05-07 04:34 712K
20260507T00Z_MSC_GDPS_RelativeHumidity_IsbL-0225_LatLon0.15_PT117H.grib2 2026-05-07 04:34 796K
20260507T00Z_MSC_GDPS_RelativeHumidity_IsbL-0250_LatLon0.15_PT117H.grib2 2026-05-07 04:34 874K
20260507T00Z_MSC_GDPS_RelativeHumidity_IsbL-0275_LatLon0.15_PT117H.grib2 2026-05-07 04:34 895K
20260507T00Z_MSC_GDPS_RelativeHumidity_IsbL-0300_LatLon0.15_PT117H.grib2 2026-05-07 04:34 933K
20260507T00Z_MSC_GDPS_RelativeHumidity_IsbL-0350_LatLon0.15_PT117H.grib2 2026-05-07 04:34 949K
20260507T00Z_MSC_GDPS_RelativeHumidity_IsbL-0400_LatLon0.15_PT117H.grib2 2026-05-07 04:34 973K
20260507T00Z_MSC_GDPS_RelativeHumidity_IsbL-0450_LatLon0.15_PT117H.grib2 2026-05-07 04:34 1.0M
20260507T00Z_MSC_GDPS_RelativeHumidity_IsbL-0500_LatLon0.15_PT117H.grib2 2026-05-07 04:34 1.0M
20260507T00Z_MSC_GDPS_RelativeHumidity_IsbL-0550_LatLon0.15_PT117H.grib2 2026-05-07 04:34 1.0M
20260507T00Z_MSC_GDPS_RelativeHumidity_IsbL-0600_LatLon0.15_PT117H.grib2 2026-05-07 04:34 1.0M
20260507T00Z_MSC_GDPS_RelativeHumidity_IsbL-0650_LatLon0.15_PT117H.grib2 2026-05-07 04:34 1.1M
20260507T00Z_MSC_GDPS_RelativeHumidity_IsbL-0700_LatLon0.15_PT117H.grib2 2026-05-07 04:34 1.1M
20260507T00Z_MSC_GDPS_RelativeHumidity_IsbL-0750_LatLon0.15_PT117H.grib2 2026-05-07 04:34 1.2M
20260507T00Z_MSC_GDPS_RelativeHumidity_IsbL-0800_LatLon0.15_PT117H.grib2 2026-05-07 04:34 1.2M
20260507T00Z_MSC_GDPS_RelativeHumidity_IsbL-0850_LatLon0.15_PT117H.grib2 2026-05-07 04:34 1.2M
20260507T00Z_MSC_GDPS_RelativeHumidity_IsbL-0875_LatLon0.15_PT117H.grib2 2026-05-07 04:34 1.2M
20260507T00Z_MSC_GDPS_RelativeHumidity_IsbL-0900_LatLon0.15_PT117H.grib2 2026-05-07 04:34 1.2M
20260507T00Z_MSC_GDPS_RelativeHumidity_IsbL-0925_LatLon0.15_PT117H.grib2 2026-05-07 04:34 1.2M
20260507T00Z_MSC_GDPS_RelativeHumidity_IsbL-0950_LatLon0.15_PT117H.grib2 2026-05-07 04:34 1.2M
20260507T00Z_MSC_GDPS_RelativeHumidity_IsbL-0970_LatLon0.15_PT117H.grib2 2026-05-07 04:34 1.2M
20260507T00Z_MSC_GDPS_RelativeHumidity_IsbL-0985_LatLon0.15_PT117H.grib2 2026-05-07 04:34 1.1M
20260507T00Z_MSC_GDPS_RelativeHumidity_IsbL-1000_LatLon0.15_PT117H.grib2 2026-05-07 04:34 1.1M
20260507T00Z_MSC_GDPS_RelativeHumidity_IsbL-1015_LatLon0.15_PT117H.grib2 2026-05-07 04:34 1.0M
20260507T00Z_MSC_GDPS_RelativeVorticity_IsbL-0200_LatLon0.15_PT117H.grib2 2026-05-07 04:34 1.2M
20260507T00Z_MSC_GDPS_RelativeVorticity_IsbL-0250_LatLon0.15_PT117H.grib2 2026-05-07 04:34 1.3M
20260507T00Z_MSC_GDPS_RelativeVorticity_IsbL-0500_LatLon0.15_PT117H.grib2 2026-05-07 04:34 1.2M
20260507T00Z_MSC_GDPS_RelativeVorticity_IsbL-0700_LatLon0.15_PT117H.grib2 2026-05-07 04:34 1.3M
20260507T00Z_MSC_GDPS_RelativeVorticity_IsbL-0850_LatLon0.15_PT117H.grib2 2026-05-07 04:34 1.6M
20260507T00Z_MSC_GDPS_Runoff-Accum_Sfc_LatLon0.15_PT117H.grib2 2026-05-07 04:34 100K
20260507T00Z_MSC_GDPS_SensibleHeatNetFlux_Sfc_LatLon0.15_PT117H.grib2 2026-05-07 04:34 610K
20260507T00Z_MSC_GDPS_ShowalterIndex_IsbL-0500_LatLon0.15_PT117H.grib2 2026-05-07 04:34 6.2M
20260507T00Z_MSC_GDPS_Snow-Accum1h_Sfc_LatLon0.15_PT117H.grib2 2026-05-07 04:34 1.0M
20260507T00Z_MSC_GDPS_Snow-Accum3h_Sfc_LatLon0.15_PT117H.grib2 2026-05-07 04:34 1.1M
20260507T00Z_MSC_GDPS_Snow-Accum_Sfc_LatLon0.15_PT117H.grib2 2026-05-07 04:34 2.1M
20260507T00Z_MSC_GDPS_SnowDensity_Sfc_LatLon0.15_PT117H.grib2 2026-05-07 04:34 258K
20260507T00Z_MSC_GDPS_SnowDepth_Sfc_LatLon0.15_PT117H.grib2 2026-05-07 04:34 1.7M
20260507T00Z_MSC_GDPS_SoilTemp_DBS-0to10cm_LatLon0.15_PT117H.grib2 2026-05-07 04:34 509K
20260507T00Z_MSC_GDPS_SoilTemp_Sfc_LatLon0.15_PT117H.grib2 2026-05-07 04:34 566K
20260507T00Z_MSC_GDPS_SoilVolumetricIceContent_Sfc_LatLon0.15_PT117H.grib2 2026-05-07 04:34 174K
20260507T00Z_MSC_GDPS_SoilVolumetricWaterContent_DBS-0to10cm_LatLon0.15_PT117H.grib2 2026-05-07 04:34 601K
20260507T00Z_MSC_GDPS_SoilVolumetricWaterContent_DBS-0to1cm_LatLon0.15_PT117H.grib2 2026-05-07 04:34 647K
20260507T00Z_MSC_GDPS_SpecificHumidity_AGL-120m_LatLon0.15_PT117H.grib2 2026-05-07 04:34 1.1M
20260507T00Z_MSC_GDPS_SpecificHumidity_AGL-2m_LatLon0.15_PT117H.grib2 2026-05-07 04:34 1.2M
20260507T00Z_MSC_GDPS_SpecificHumidity_AGL-40m_LatLon0.15_PT117H.grib2 2026-05-07 04:34 1.1M
20260507T00Z_MSC_GDPS_SpecificHumidity_AGL-80m_LatLon0.15_PT117H.grib2 2026-05-07 04:34 1.1M
20260507T00Z_MSC_GDPS_SpecificHumidity_IsbL-0001_LatLon0.15_PT117H.grib2 2026-05-07 04:34 1.3M
20260507T00Z_MSC_GDPS_SpecificHumidity_IsbL-0005_LatLon0.15_PT117H.grib2 2026-05-07 04:34 1.1M
20260507T00Z_MSC_GDPS_SpecificHumidity_IsbL-0010_LatLon0.15_PT117H.grib2 2026-05-07 04:34 1.2M
20260507T00Z_MSC_GDPS_SpecificHumidity_IsbL-0020_LatLon0.15_PT117H.grib2 2026-05-07 04:34 1.3M
20260507T00Z_MSC_GDPS_SpecificHumidity_IsbL-0030_LatLon0.15_PT117H.grib2 2026-05-07 04:34 1.2M
20260507T00Z_MSC_GDPS_SpecificHumidity_IsbL-0050_LatLon0.15_PT117H.grib2 2026-05-07 04:34 1.6M
20260507T00Z_MSC_GDPS_SpecificHumidity_IsbL-0100_LatLon0.15_PT117H.grib2 2026-05-07 04:34 1.2M
20260507T00Z_MSC_GDPS_SpecificHumidity_IsbL-0150_LatLon0.15_PT117H.grib2 2026-05-07 04:34 1.2M
20260507T00Z_MSC_GDPS_SpecificHumidity_IsbL-0175_LatLon0.15_PT117H.grib2 2026-05-07 04:34 1.3M
20260507T00Z_MSC_GDPS_SpecificHumidity_IsbL-0200_LatLon0.15_PT117H.grib2 2026-05-07 04:34 1.3M
20260507T00Z_MSC_GDPS_SpecificHumidity_IsbL-0225_LatLon0.15_PT117H.grib2 2026-05-07 04:34 1.3M
20260507T00Z_MSC_GDPS_SpecificHumidity_IsbL-0250_LatLon0.15_PT117H.grib2 2026-05-07 04:34 1.2M
20260507T00Z_MSC_GDPS_SpecificHumidity_IsbL-0275_LatLon0.15_PT117H.grib2 2026-05-07 04:34 1.1M
20260507T00Z_MSC_GDPS_SpecificHumidity_IsbL-0300_LatLon0.15_PT117H.grib2 2026-05-07 04:34 1.3M
20260507T00Z_MSC_GDPS_SpecificHumidity_IsbL-0350_LatLon0.15_PT117H.grib2 2026-05-07 04:34 1.3M
20260507T00Z_MSC_GDPS_SpecificHumidity_IsbL-0400_LatLon0.15_PT117H.grib2 2026-05-07 04:34 1.4M
20260507T00Z_MSC_GDPS_SpecificHumidity_IsbL-0450_LatLon0.15_PT117H.grib2 2026-05-07 04:34 1.3M
20260507T00Z_MSC_GDPS_SpecificHumidity_IsbL-0500_LatLon0.15_PT117H.grib2 2026-05-07 04:34 1.5M
20260507T00Z_MSC_GDPS_SpecificHumidity_IsbL-0550_LatLon0.15_PT117H.grib2 2026-05-07 04:34 1.6M
20260507T00Z_MSC_GDPS_SpecificHumidity_IsbL-0600_LatLon0.15_PT117H.grib2 2026-05-07 04:34 1.5M
20260507T00Z_MSC_GDPS_SpecificHumidity_IsbL-0650_LatLon0.15_PT117H.grib2 2026-05-07 04:34 1.6M
20260507T00Z_MSC_GDPS_SpecificHumidity_IsbL-0700_LatLon0.15_PT117H.grib2 2026-05-07 04:34 1.7M
20260507T00Z_MSC_GDPS_SpecificHumidity_IsbL-0750_LatLon0.15_PT117H.grib2 2026-05-07 04:34 1.8M
20260507T00Z_MSC_GDPS_SpecificHumidity_IsbL-0800_LatLon0.15_PT117H.grib2 2026-05-07 04:34 1.9M
20260507T00Z_MSC_GDPS_SpecificHumidity_IsbL-0850_LatLon0.15_PT117H.grib2 2026-05-07 04:34 1.9M
20260507T00Z_MSC_GDPS_SpecificHumidity_IsbL-0875_LatLon0.15_PT117H.grib2 2026-05-07 04:34 2.0M
20260507T00Z_MSC_GDPS_SpecificHumidity_IsbL-0900_LatLon0.15_PT117H.grib2 2026-05-07 04:34 1.9M
20260507T00Z_MSC_GDPS_SpecificHumidity_IsbL-0925_LatLon0.15_PT117H.grib2 2026-05-07 04:34 1.6M
20260507T00Z_MSC_GDPS_SpecificHumidity_IsbL-0950_LatLon0.15_PT117H.grib2 2026-05-07 04:34 1.6M
20260507T00Z_MSC_GDPS_SpecificHumidity_IsbL-0970_LatLon0.15_PT117H.grib2 2026-05-07 04:34 1.6M
20260507T00Z_MSC_GDPS_SpecificHumidity_IsbL-0985_LatLon0.15_PT117H.grib2 2026-05-07 04:34 1.5M
20260507T00Z_MSC_GDPS_SpecificHumidity_IsbL-1000_LatLon0.15_PT117H.grib2 2026-05-07 04:34 1.5M
20260507T00Z_MSC_GDPS_SpecificHumidity_IsbL-1015_LatLon0.15_PT117H.grib2 2026-05-07 04:34 1.5M
20260507T00Z_MSC_GDPS_SpecificHumidity_Sfc_LatLon0.15_PT117H.grib2 2026-05-07 04:34 674K
20260507T00Z_MSC_GDPS_Thickness_IsbL-0850to0700_LatLon0.15_PT117H.grib2 2026-05-07 04:34 474K
20260507T00Z_MSC_GDPS_Thickness_IsbL-1000to0500_LatLon0.15_PT117H.grib2 2026-05-07 04:34 382K
20260507T00Z_MSC_GDPS_Thickness_IsbL-1000to0850_LatLon0.15_PT117H.grib2 2026-05-07 04:34 492K
20260507T00Z_MSC_GDPS_TotalCloudCover_Sfc_LatLon0.15_PT117H.grib2 2026-05-07 04:34 817K
20260507T00Z_MSC_GDPS_TotalTotalsIndex_Sfc_LatLon0.15_PT117H.grib2 2026-05-07 04:34 6.2M
20260507T00Z_MSC_GDPS_UVIndex-ClearSky_Sfc_LatLon0.15_PT117H.grib2 2026-05-07 04:56 1.0M
20260507T00Z_MSC_GDPS_UVIndex_Sfc_LatLon0.15_PT117H.grib2 2026-05-07 04:56 1.5M
20260507T00Z_MSC_GDPS_UpwardLongwaveRadiationFlux_NTAtm_LatLon0.15_PT117H.grib2 2026-05-07 04:34 837K
20260507T00Z_MSC_GDPS_VerticalVelocity_IsbL-0200_LatLon0.15_PT117H.grib2 2026-05-07 04:34 924K
20260507T00Z_MSC_GDPS_VerticalVelocity_IsbL-0250_LatLon0.15_PT117H.grib2 2026-05-07 04:34 850K
20260507T00Z_MSC_GDPS_VerticalVelocity_IsbL-0500_LatLon0.15_PT117H.grib2 2026-05-07 04:34 1.0M
20260507T00Z_MSC_GDPS_VerticalVelocity_IsbL-0600_LatLon0.15_PT117H.grib2 2026-05-07 04:34 1.1M
20260507T00Z_MSC_GDPS_VerticalVelocity_IsbL-0700_LatLon0.15_PT117H.grib2 2026-05-07 04:34 1.1M
20260507T00Z_MSC_GDPS_VerticalVelocity_IsbL-0850_LatLon0.15_PT117H.grib2 2026-05-07 04:34 1.3M
20260507T00Z_MSC_GDPS_WindChill_Sfc_LatLon0.15_PT117H.grib2 2026-05-07 04:34 5.3M
20260507T00Z_MSC_GDPS_WindDir_AGL-10m_LatLon0.15_PT117H.grib2 2026-05-07 04:34 1.3M
20260507T00Z_MSC_GDPS_WindDir_AGL-120m_LatLon0.15_PT117H.grib2 2026-05-07 04:34 1.3M
20260507T00Z_MSC_GDPS_WindDir_AGL-40m_LatLon0.15_PT117H.grib2 2026-05-07 04:34 1.4M
20260507T00Z_MSC_GDPS_WindDir_AGL-80m_LatLon0.15_PT117H.grib2 2026-05-07 04:34 1.4M
20260507T00Z_MSC_GDPS_WindDir_IsbL-0001_LatLon0.15_PT117H.grib2 2026-05-07 04:34 651K
20260507T00Z_MSC_GDPS_WindDir_IsbL-0005_LatLon0.15_PT117H.grib2 2026-05-07 04:34 816K
20260507T00Z_MSC_GDPS_WindDir_IsbL-0010_LatLon0.15_PT117H.grib2 2026-05-07 04:34 843K
20260507T00Z_MSC_GDPS_WindDir_IsbL-0020_LatLon0.15_PT117H.grib2 2026-05-07 04:34 948K
20260507T00Z_MSC_GDPS_WindDir_IsbL-0030_LatLon0.15_PT117H.grib2 2026-05-07 04:34 1.0M
20260507T00Z_MSC_GDPS_WindDir_IsbL-0050_LatLon0.15_PT117H.grib2 2026-05-07 04:34 948K
20260507T00Z_MSC_GDPS_WindDir_IsbL-0100_LatLon0.15_PT117H.grib2 2026-05-07 04:34 1.0M
20260507T00Z_MSC_GDPS_WindDir_IsbL-0150_LatLon0.15_PT117H.grib2 2026-05-07 04:34 1.0M
20260507T00Z_MSC_GDPS_WindDir_IsbL-0175_LatLon0.15_PT117H.grib2 2026-05-07 04:34 1.0M
20260507T00Z_MSC_GDPS_WindDir_IsbL-0200_LatLon0.15_PT117H.grib2 2026-05-07 04:34 1.1M
20260507T00Z_MSC_GDPS_WindDir_IsbL-0225_LatLon0.15_PT117H.grib2 2026-05-07 04:34 1.1M
20260507T00Z_MSC_GDPS_WindDir_IsbL-0250_LatLon0.15_PT117H.grib2 2026-05-07 04:34 1.1M
20260507T00Z_MSC_GDPS_WindDir_IsbL-0275_LatLon0.15_PT117H.grib2 2026-05-07 04:34 1.2M
20260507T00Z_MSC_GDPS_WindDir_IsbL-0300_LatLon0.15_PT117H.grib2 2026-05-07 04:34 1.2M
20260507T00Z_MSC_GDPS_WindDir_IsbL-0350_LatLon0.15_PT117H.grib2 2026-05-07 04:34 1.2M
20260507T00Z_MSC_GDPS_WindDir_IsbL-0400_LatLon0.15_PT117H.grib2 2026-05-07 04:34 1.3M
20260507T00Z_MSC_GDPS_WindDir_IsbL-0450_LatLon0.15_PT117H.grib2 2026-05-07 04:34 1.3M
20260507T00Z_MSC_GDPS_WindDir_IsbL-0500_LatLon0.15_PT117H.grib2 2026-05-07 04:34 1.4M
20260507T00Z_MSC_GDPS_WindDir_IsbL-0550_LatLon0.15_PT117H.grib2 2026-05-07 04:34 1.4M
20260507T00Z_MSC_GDPS_WindDir_IsbL-0600_LatLon0.15_PT117H.grib2 2026-05-07 04:34 1.5M
20260507T00Z_MSC_GDPS_WindDir_IsbL-0650_LatLon0.15_PT117H.grib2 2026-05-07 04:34 1.5M
20260507T00Z_MSC_GDPS_WindDir_IsbL-0700_LatLon0.15_PT117H.grib2 2026-05-07 04:34 1.6M
20260507T00Z_MSC_GDPS_WindDir_IsbL-0750_LatLon0.15_PT117H.grib2 2026-05-07 04:34 1.7M
20260507T00Z_MSC_GDPS_WindDir_IsbL-0800_LatLon0.15_PT117H.grib2 2026-05-07 04:34 1.8M
20260507T00Z_MSC_GDPS_WindDir_IsbL-0850_LatLon0.15_PT117H.grib2 2026-05-07 04:34 1.9M
20260507T00Z_MSC_GDPS_WindDir_IsbL-0875_LatLon0.15_PT117H.grib2 2026-05-07 04:34 1.9M
20260507T00Z_MSC_GDPS_WindDir_IsbL-0900_LatLon0.15_PT117H.grib2 2026-05-07 04:34 2.0M
20260507T00Z_MSC_GDPS_WindDir_IsbL-0925_LatLon0.15_PT117H.grib2 2026-05-07 04:34 2.0M
20260507T00Z_MSC_GDPS_WindDir_IsbL-0950_LatLon0.15_PT117H.grib2 2026-05-07 04:34 2.0M
20260507T00Z_MSC_GDPS_WindDir_IsbL-0970_LatLon0.15_PT117H.grib2 2026-05-07 04:34 2.0M
20260507T00Z_MSC_GDPS_WindDir_IsbL-0985_LatLon0.15_PT117H.grib2 2026-05-07 04:34 2.0M
20260507T00Z_MSC_GDPS_WindDir_IsbL-1000_LatLon0.15_PT117H.grib2 2026-05-07 04:34 2.1M
20260507T00Z_MSC_GDPS_WindDir_IsbL-1015_LatLon0.15_PT117H.grib2 2026-05-07 04:34 2.0M
20260507T00Z_MSC_GDPS_WindGust-Max_AGL-10m_LatLon0.15_PT117H.grib2 2026-05-07 04:34 2.2M
20260507T00Z_MSC_GDPS_WindGust-Min_AGL-10m_LatLon0.15_PT117H.grib2 2026-05-07 04:34 2.2M
20260507T00Z_MSC_GDPS_WindGust_AGL-10m_LatLon0.15_PT117H.grib2 2026-05-07 04:34 2.1M
20260507T00Z_MSC_GDPS_WindSpeed_AGL-10m_LatLon0.15_PT117H.grib2 2026-05-07 04:34 1.1M
20260507T00Z_MSC_GDPS_WindSpeed_AGL-120m_LatLon0.15_PT117H.grib2 2026-05-07 04:34 1.3M
20260507T00Z_MSC_GDPS_WindSpeed_AGL-40m_LatLon0.15_PT117H.grib2 2026-05-07 04:34 1.3M
20260507T00Z_MSC_GDPS_WindSpeed_AGL-80m_LatLon0.15_PT117H.grib2 2026-05-07 04:34 1.3M
20260507T00Z_MSC_GDPS_WindSpeed_IsbL-0001_LatLon0.15_PT117H.grib2 2026-05-07 04:34 505K
20260507T00Z_MSC_GDPS_WindSpeed_IsbL-0005_LatLon0.15_PT117H.grib2 2026-05-07 04:34 692K
20260507T00Z_MSC_GDPS_WindSpeed_IsbL-0010_LatLon0.15_PT117H.grib2 2026-05-07 04:34 624K
20260507T00Z_MSC_GDPS_WindSpeed_IsbL-0020_LatLon0.15_PT117H.grib2 2026-05-07 04:34 664K
20260507T00Z_MSC_GDPS_WindSpeed_IsbL-0030_LatLon0.15_PT117H.grib2 2026-05-07 04:34 674K
20260507T00Z_MSC_GDPS_WindSpeed_IsbL-0050_LatLon0.15_PT117H.grib2 2026-05-07 04:34 895K
20260507T00Z_MSC_GDPS_WindSpeed_IsbL-0100_LatLon0.15_PT117H.grib2 2026-05-07 04:34 1.1M
20260507T00Z_MSC_GDPS_WindSpeed_IsbL-0150_LatLon0.15_PT117H.grib2 2026-05-07 04:34 1.0M
20260507T00Z_MSC_GDPS_WindSpeed_IsbL-0175_LatLon0.15_PT117H.grib2 2026-05-07 04:34 1.0M
20260507T00Z_MSC_GDPS_WindSpeed_IsbL-0200_LatLon0.15_PT117H.grib2 2026-05-07 04:34 1.0M
20260507T00Z_MSC_GDPS_WindSpeed_IsbL-0225_LatLon0.15_PT117H.grib2 2026-05-07 04:34 1.1M
20260507T00Z_MSC_GDPS_WindSpeed_IsbL-0250_LatLon0.15_PT117H.grib2 2026-05-07 04:34 1.1M
20260507T00Z_MSC_GDPS_WindSpeed_IsbL-0275_LatLon0.15_PT117H.grib2 2026-05-07 04:34 1.1M
20260507T00Z_MSC_GDPS_WindSpeed_IsbL-0300_LatLon0.15_PT117H.grib2 2026-05-07 04:34 1.1M
20260507T00Z_MSC_GDPS_WindSpeed_IsbL-0350_LatLon0.15_PT117H.grib2 2026-05-07 04:34 1.1M
20260507T00Z_MSC_GDPS_WindSpeed_IsbL-0400_LatLon0.15_PT117H.grib2 2026-05-07 04:34 1.1M
20260507T00Z_MSC_GDPS_WindSpeed_IsbL-0450_LatLon0.15_PT117H.grib2 2026-05-07 04:34 1.1M
20260507T00Z_MSC_GDPS_WindSpeed_IsbL-0500_LatLon0.15_PT117H.grib2 2026-05-07 04:34 1.1M
20260507T00Z_MSC_GDPS_WindSpeed_IsbL-0550_LatLon0.15_PT117H.grib2 2026-05-07 04:34 1.1M
20260507T00Z_MSC_GDPS_WindSpeed_IsbL-0600_LatLon0.15_PT117H.grib2 2026-05-07 04:34 1.1M
20260507T00Z_MSC_GDPS_WindSpeed_IsbL-0650_LatLon0.15_PT117H.grib2 2026-05-07 04:34 1.2M
20260507T00Z_MSC_GDPS_WindSpeed_IsbL-0700_LatLon0.15_PT117H.grib2 2026-05-07 04:34 1.5M
20260507T00Z_MSC_GDPS_WindSpeed_IsbL-0750_LatLon0.15_PT117H.grib2 2026-05-07 04:34 1.6M
20260507T00Z_MSC_GDPS_WindSpeed_IsbL-0800_LatLon0.15_PT117H.grib2 2026-05-07 04:34 1.7M
20260507T00Z_MSC_GDPS_WindSpeed_IsbL-0850_LatLon0.15_PT117H.grib2 2026-05-07 04:34 1.7M
20260507T00Z_MSC_GDPS_WindSpeed_IsbL-0875_LatLon0.15_PT117H.grib2 2026-05-07 04:34 1.8M
20260507T00Z_MSC_GDPS_WindSpeed_IsbL-0900_LatLon0.15_PT117H.grib2 2026-05-07 04:34 1.8M
20260507T00Z_MSC_GDPS_WindSpeed_IsbL-0925_LatLon0.15_PT117H.grib2 2026-05-07 04:34 1.8M
20260507T00Z_MSC_GDPS_WindSpeed_IsbL-0950_LatLon0.15_PT117H.grib2 2026-05-07 04:34 1.8M
20260507T00Z_MSC_GDPS_WindSpeed_IsbL-0970_LatLon0.15_PT117H.grib2 2026-05-07 04:34 1.8M
20260507T00Z_MSC_GDPS_WindSpeed_IsbL-0985_LatLon0.15_PT117H.grib2 2026-05-07 04:34 1.9M
20260507T00Z_MSC_GDPS_WindSpeed_IsbL-1000_LatLon0.15_PT117H.grib2 2026-05-07 04:34 1.8M
20260507T00Z_MSC_GDPS_WindSpeed_IsbL-1015_LatLon0.15_PT117H.grib2 2026-05-07 04:34 1.8M
20260507T00Z_MSC_GDPS_WindU_AGL-10m_LatLon0.15_PT117H.grib2 2026-05-07 04:34 1.3M
20260507T00Z_MSC_GDPS_WindU_AGL-120m_LatLon0.15_PT117H.grib2 2026-05-07 04:34 1.0M
20260507T00Z_MSC_GDPS_WindU_AGL-40m_LatLon0.15_PT117H.grib2 2026-05-07 04:34 1.0M
20260507T00Z_MSC_GDPS_WindU_AGL-80m_LatLon0.15_PT117H.grib2 2026-05-07 04:34 1.0M
20260507T00Z_MSC_GDPS_WindU_IsbL-0001_LatLon0.15_PT117H.grib2 2026-05-07 04:34 604K
20260507T00Z_MSC_GDPS_WindU_IsbL-0005_LatLon0.15_PT117H.grib2 2026-05-07 04:34 689K
20260507T00Z_MSC_GDPS_WindU_IsbL-0010_LatLon0.15_PT117H.grib2 2026-05-07 04:34 698K
20260507T00Z_MSC_GDPS_WindU_IsbL-0020_LatLon0.15_PT117H.grib2 2026-05-07 04:34 729K
20260507T00Z_MSC_GDPS_WindU_IsbL-0030_LatLon0.15_PT117H.grib2 2026-05-07 04:34 741K
20260507T00Z_MSC_GDPS_WindU_IsbL-0050_LatLon0.15_PT117H.grib2 2026-05-07 04:34 759K
20260507T00Z_MSC_GDPS_WindU_IsbL-0100_LatLon0.15_PT117H.grib2 2026-05-07 04:34 922K
20260507T00Z_MSC_GDPS_WindU_IsbL-0150_LatLon0.15_PT117H.grib2 2026-05-07 04:34 1.0M
20260507T00Z_MSC_GDPS_WindU_IsbL-0175_LatLon0.15_PT117H.grib2 2026-05-07 04:34 800K
20260507T00Z_MSC_GDPS_WindU_IsbL-0200_LatLon0.15_PT117H.grib2 2026-05-07 04:34 832K
20260507T00Z_MSC_GDPS_WindU_IsbL-0225_LatLon0.15_PT117H.grib2 2026-05-07 04:34 848K
20260507T00Z_MSC_GDPS_WindU_IsbL-0250_LatLon0.15_PT117H.grib2 2026-05-07 04:34 852K
20260507T00Z_MSC_GDPS_WindU_IsbL-0275_LatLon0.15_PT117H.grib2 2026-05-07 04:34 881K
20260507T00Z_MSC_GDPS_WindU_IsbL-0300_LatLon0.15_PT117H.grib2 2026-05-07 04:34 872K
20260507T00Z_MSC_GDPS_WindU_IsbL-0350_LatLon0.15_PT117H.grib2 2026-05-07 04:34 887K
20260507T00Z_MSC_GDPS_WindU_IsbL-0400_LatLon0.15_PT117H.grib2 2026-05-07 04:34 1.1M
20260507T00Z_MSC_GDPS_WindU_IsbL-0450_LatLon0.15_PT117H.grib2 2026-05-07 04:34 1.1M
20260507T00Z_MSC_GDPS_WindU_IsbL-0500_LatLon0.15_PT117H.grib2 2026-05-07 04:34 1.1M
20260507T00Z_MSC_GDPS_WindU_IsbL-0550_LatLon0.15_PT117H.grib2 2026-05-07 04:34 1.1M
20260507T00Z_MSC_GDPS_WindU_IsbL-0600_LatLon0.15_PT117H.grib2 2026-05-07 04:34 1.2M
20260507T00Z_MSC_GDPS_WindU_IsbL-0650_LatLon0.15_PT117H.grib2 2026-05-07 04:34 1.2M
20260507T00Z_MSC_GDPS_WindU_IsbL-0700_LatLon0.15_PT117H.grib2 2026-05-07 04:34 1.2M
20260507T00Z_MSC_GDPS_WindU_IsbL-0750_LatLon0.15_PT117H.grib2 2026-05-07 04:34 1.3M
20260507T00Z_MSC_GDPS_WindU_IsbL-0800_LatLon0.15_PT117H.grib2 2026-05-07 04:34 1.4M
20260507T00Z_MSC_GDPS_WindU_IsbL-0850_LatLon0.15_PT117H.grib2 2026-05-07 04:34 1.4M
20260507T00Z_MSC_GDPS_WindU_IsbL-0875_LatLon0.15_PT117H.grib2 2026-05-07 04:34 1.5M
20260507T00Z_MSC_GDPS_WindU_IsbL-0900_LatLon0.15_PT117H.grib2 2026-05-07 04:34 1.5M
20260507T00Z_MSC_GDPS_WindU_IsbL-0925_LatLon0.15_PT117H.grib2 2026-05-07 04:34 1.5M
20260507T00Z_MSC_GDPS_WindU_IsbL-0950_LatLon0.15_PT117H.grib2 2026-05-07 04:34 1.4M
20260507T00Z_MSC_GDPS_WindU_IsbL-0970_LatLon0.15_PT117H.grib2 2026-05-07 04:34 1.4M
20260507T00Z_MSC_GDPS_WindU_IsbL-0985_LatLon0.15_PT117H.grib2 2026-05-07 04:34 1.4M
20260507T00Z_MSC_GDPS_WindU_IsbL-1000_LatLon0.15_PT117H.grib2 2026-05-07 04:34 1.4M
20260507T00Z_MSC_GDPS_WindU_IsbL-1015_LatLon0.15_PT117H.grib2 2026-05-07 04:34 1.3M
20260507T00Z_MSC_GDPS_WindV_AGL-10m_LatLon0.15_PT117H.grib2 2026-05-07 04:34 1.3M
20260507T00Z_MSC_GDPS_WindV_AGL-120m_LatLon0.15_PT117H.grib2 2026-05-07 04:34 1.0M
20260507T00Z_MSC_GDPS_WindV_AGL-40m_LatLon0.15_PT117H.grib2 2026-05-07 04:34 1.0M
20260507T00Z_MSC_GDPS_WindV_AGL-80m_LatLon0.15_PT117H.grib2 2026-05-07 04:34 1.0M
20260507T00Z_MSC_GDPS_WindV_IsbL-0001_LatLon0.15_PT117H.grib2 2026-05-07 04:34 724K
20260507T00Z_MSC_GDPS_WindV_IsbL-0005_LatLon0.15_PT117H.grib2 2026-05-07 04:34 785K
20260507T00Z_MSC_GDPS_WindV_IsbL-0010_LatLon0.15_PT117H.grib2 2026-05-07 04:34 806K
20260507T00Z_MSC_GDPS_WindV_IsbL-0020_LatLon0.15_PT117H.grib2 2026-05-07 04:34 854K
20260507T00Z_MSC_GDPS_WindV_IsbL-0030_LatLon0.15_PT117H.grib2 2026-05-07 04:34 861K
20260507T00Z_MSC_GDPS_WindV_IsbL-0050_LatLon0.15_PT117H.grib2 2026-05-07 04:34 695K
20260507T00Z_MSC_GDPS_WindV_IsbL-0100_LatLon0.15_PT117H.grib2 2026-05-07 04:34 853K
20260507T00Z_MSC_GDPS_WindV_IsbL-0150_LatLon0.15_PT117H.grib2 2026-05-07 04:34 972K
20260507T00Z_MSC_GDPS_WindV_IsbL-0175_LatLon0.15_PT117H.grib2 2026-05-07 04:34 1.0M
20260507T00Z_MSC_GDPS_WindV_IsbL-0200_LatLon0.15_PT117H.grib2 2026-05-07 04:34 831K
20260507T00Z_MSC_GDPS_WindV_IsbL-0225_LatLon0.15_PT117H.grib2 2026-05-07 04:34 844K
20260507T00Z_MSC_GDPS_WindV_IsbL-0250_LatLon0.15_PT117H.grib2 2026-05-07 04:34 845K
20260507T00Z_MSC_GDPS_WindV_IsbL-0275_LatLon0.15_PT117H.grib2 2026-05-07 04:34 932K
20260507T00Z_MSC_GDPS_WindV_IsbL-0300_LatLon0.15_PT117H.grib2 2026-05-07 04:34 925K
20260507T00Z_MSC_GDPS_WindV_IsbL-0350_LatLon0.15_PT117H.grib2 2026-05-07 04:34 938K
20260507T00Z_MSC_GDPS_WindV_IsbL-0400_LatLon0.15_PT117H.grib2 2026-05-07 04:34 940K
20260507T00Z_MSC_GDPS_WindV_IsbL-0450_LatLon0.15_PT117H.grib2 2026-05-07 04:34 885K
20260507T00Z_MSC_GDPS_WindV_IsbL-0500_LatLon0.15_PT117H.grib2 2026-05-07 04:34 893K
20260507T00Z_MSC_GDPS_WindV_IsbL-0550_LatLon0.15_PT117H.grib2 2026-05-07 04:34 901K
20260507T00Z_MSC_GDPS_WindV_IsbL-0600_LatLon0.15_PT117H.grib2 2026-05-07 04:34 1.1M
20260507T00Z_MSC_GDPS_WindV_IsbL-0650_LatLon0.15_PT117H.grib2 2026-05-07 04:34 1.2M
20260507T00Z_MSC_GDPS_WindV_IsbL-0700_LatLon0.15_PT117H.grib2 2026-05-07 04:34 1.2M
20260507T00Z_MSC_GDPS_WindV_IsbL-0750_LatLon0.15_PT117H.grib2 2026-05-07 04:34 1.3M
20260507T00Z_MSC_GDPS_WindV_IsbL-0800_LatLon0.15_PT117H.grib2 2026-05-07 04:34 1.4M
20260507T00Z_MSC_GDPS_WindV_IsbL-0850_LatLon0.15_PT117H.grib2 2026-05-07 04:34 1.4M
20260507T00Z_MSC_GDPS_WindV_IsbL-0875_LatLon0.15_PT117H.grib2 2026-05-07 04:34 1.4M
20260507T00Z_MSC_GDPS_WindV_IsbL-0900_LatLon0.15_PT117H.grib2 2026-05-07 04:34 1.5M
20260507T00Z_MSC_GDPS_WindV_IsbL-0925_LatLon0.15_PT117H.grib2 2026-05-07 04:34 1.5M
20260507T00Z_MSC_GDPS_WindV_IsbL-0950_LatLon0.15_PT117H.grib2 2026-05-07 04:34 1.4M
20260507T00Z_MSC_GDPS_WindV_IsbL-0970_LatLon0.15_PT117H.grib2 2026-05-07 04:34 1.4M
20260507T00Z_MSC_GDPS_WindV_IsbL-0985_LatLon0.15_PT117H.grib2 2026-05-07 04:34 1.4M
20260507T00Z_MSC_GDPS_WindV_IsbL-1000_LatLon0.15_PT117H.grib2 2026-05-07 04:34 1.4M
20260507T00Z_MSC_GDPS_WindV_IsbL-1015_LatLon0.15_PT117H.grib2 2026-05-07 04:34 1.3M